1360281634174,52.3387
1360281694174,52.2597
1360281754174,52.2231
1360281814174,52.1875
1360281874174,52.3417
1360281934174,52.2711
1360281994174,52.1854
1360282054174,52.2688
1360282114174,52.2287
1360282174174,52.2345
1360282234174,52.1640
1360282294174,52.2334
1360282354174,52.2306
1360282414174,52.2535
1360282474174,52.1647
1360282534174,52.2123
1360282594174,52.0944
1360282654174,52.2500
1360282714174,52.1351
1360282774174,52.1603
1360282834174,52.1348
1360282894174,52.2458
1360282954174,52.1677
1360283014174,52.2279
1360283074174,52.3128
1360283134174,52.1396
1360283194174,52.1567
1360283254174,52.2843
1360283314174,52.1632
1360283374174,52.0804
1360283434174,52.1442
1360283494174,52.2718
1360283554174,52.1357
1360283614174,52.1987
1360283674174,52.1890
1360283734174,52.2221
1360283794174,52.0110
1360283854174,52.0622
1360283914174,52.0775
1360283974174,51.9438
1360284034174,52.1813
1360284094174,52.3108
1360284154174,52.1946
1360284214174,52.1908
1360284274174,52.2880
1360284334174,52.1686
1360284394174,52.0044
1360284454174,52.2127
1360284514174,52.1248
1360284574174,52.1645
1360284634174,52.2093
1360284694174,52.0259
1360284754174,52.1926
1360284814174,52.2034
1360284874174,52.2435
1360284934174,52.1657
1360284994174,52.0650
1360285054174,52.2054
1360285114174,52.1115
1360285174174,52.0586
1360285234184,52.2442
1360285294184,52.1904
1360285354184,52.3397
1360285414184,52.1745
1360285474184,52.1286
1360285534184,52.0078
1360285594184,52.1453
1360285654184,52.1623
1360285714184,52.3148
1360285774184,52.2270
1360285834184,52.0576
1360285894184,52.1873
1360285954184,52.2050
1360286014184,52.1370
1360286074184,52.3224
1360286134184,52.1266
1360286194184,52.1280
1360286254184,51.9215
1360286314184,52.1935
1360286374184,52.1491
1360286434184,52.1682
1360286494184,52.1410
1360286554184,52.0584
1360286614184,52.2155
1360286674184,52.2767
1360286734184,52.1494
1360286794184,52.0493
1360286854184,51.8234
1360286914184,52.0170
1360286974184,52.0882
1360287034184,52.1225
1360287094184,51.9359
1360287154184,52.0002
1360287214184,52.0035
1360287274184,51.9070
1360287334184,52.0587
1360287394184,51.8367
1360287454184,52.0205
1360287514184,51.9508
1360287574184,51.9387
1360287634184,52.0196
1360287694184,52.0568
1360287754184,52.0942
1360287814184,52.0263
1360287874184,51.8710
1360287934184,52.1087
1360287994184,51.9921
1360288054184,51.9707
1360288114184,52.1510
1360288174184,51.9501
1360288234184,52.0183
1360288294184,52.1187
1360288354184,51.9630
1360288414184,52.1577
1360288474184,52.0596
1360288534184,52.0274
1360288594184,51.9904
1360288654184,51.8803
1360288714184,52.0173
1360288774184,51.9650
1360288834195,52.0278
1360288894195,52.0814
1360288954195,52.0220
1360289014195,52.0471
1360289074195,51.9832
1360289134195,51.9442
1360289194195,51.9594
1360289254195,52.0961
1360289314195,52.0596
1360289374195,52.0299
1360289434195,52.0661
1360289494195,52.0091
1360289554195,51.9953
1360289614195,52.1021
1360289674195,51.9407
1360289734195,52.0155
1360289794195,52.0618
1360289854195,52.1642
1360289914195,51.9901
1360289974195,52.0246
1360290034195,51.9287
1360290094195,52.0124
1360290154195,52.0073
1360290214195,52.0671
1360290274195,52.0038
1360290334195,52.0228
1360290394195,52.0718
1360290454195,52.1381
1360290514195,51.9751
1360290574195,52.0977
1360290634195,52.2201
1360290694195,51.9443
1360290754195,52.0472
1360290814195,52.0491
1360290874195,52.0009
1360290934195,51.9012
1360290994195,52.0019
1360291054195,52.1766
1360291114195,52.0483
1360291174195,52.2513
1360291234195,52.1575
1360291294195,52.1391
1360291354195,52.0580
1360291414195,52.0246
1360291474195,52.2245
1360291534195,52.0731
1360291594195,51.9334
1360291654195,52.1567
1360291714195,52.1913
1360291774195,52.0890
1360291834195,51.9685
1360291894195,52.1337
1360291954195,52.1194
1360292014195,52.1356
1360292074195,52.0287
1360292134195,52.1183
1360292194195,52.1292
1360292254195,51.9994
1360292314195,52.1214
1360292374195,52.1501
1360292434206,51.8306
1360292494206,51.9121
1360292554206,52.0486
1360292614206,52.0531
1360292674206,52.0093
1360292734206,51.9217
1360292794206,52.0908
1360292854206,52.2488
1360292914206,52.0368
1360292974206,52.1314
1360293034206,52.1787
1360293094206,51.9602
1360293154206,52.2790
1360293214206,52.0843
1360293274206,52.1636
1360293334206,52.1734
1360293394206,52.0511
1360293454206,52.1147
1360293514206,51.9426
1360293574206,52.2099
1360293634206,52.0153
1360293694206,52.2300
1360293754206,52.0446
1360293814206,52.1915
1360293874206,52.1342
1360293934206,52.0582
1360293994206,52.2891
1360294054206,52.1077
1360294114206,52.2791
1360294174206,52.1691
1360294234206,52.1764
1360294294206,52.1784
1360294354206,52.0828
1360294414206,52.2595
1360294474206,52.1725
1360294534206,52.2347
1360294594206,52.0746
1360294654206,52.1973
1360294714206,52.2448
1360294774206,52.1517
1360294834206,52.1967
1360294894206,52.1712
1360294954206,52.2145
1360295014206,52.2149
1360295074206,52.1956
1360295134206,52.0182
1360295194206,52.1273
1360295254206,52.0678
1360295314206,52.1711
1360295374206,52.1834
1360295434206,52.2154
1360295494206,52.0756
1360295554206,52.0978
1360295614206,52.0883
1360295674206,51.9839
1360295734206,52.1282
1360295794206,52.1831
1360295854206,52.2949
1360295914206,52.0520
1360295974206,52.2637
1360296034216,52.2587
1360296094216,52.1876
1360296154216,51.9839
1360296214216,52.1506
1360296274216,52.1759
1360296334217,52.1815
1360296394216,52.1447
1360296454216,52.1477
1360296514216,52.1855
1360296574216,52.2907
1360296634216,52.1285
1360296694216,52.0200
1360296754216,52.2451
1360296814216,52.2036
1360296874216,52.2503
1360296934216,52.3283
1360296994216,52.2350
1360297054216,52.2196
1360297114216,52.2866
1360297174216,52.2788
1360297234216,52.0833
1360297294216,52.2046
1360297354216,52.1102
1360297414216,52.2771
1360297474216,52.3482
1360297534216,52.1820
1360297594216,52.1394
1360297654216,52.2617
1360297714217,52.2633
1360297774216,52.4946
1360297834216,52.4473
1360297894216,52.4611
1360297954216,52.1644
1360298014216,52.3276
1360298074216,52.3454
1360298134216,52.3334
1360298194216,52.1681
1360298254216,52.2551
1360298314216,52.2307
1360298374216,52.2568
1360298434216,52.3929
1360298494216,52.3223
1360298554216,52.2988
1360298614216,52.3614
1360298674216,52.3295
1360298734216,52.0950
1360298794216,52.2778
1360298854216,52.3860
1360298914216,52.4625
1360298974216,52.2195
1360299034217,52.2793
1360299094216,52.2758
1360299154216,52.2644
1360299214216,52.2337
1360299274216,52.3014
1360299334216,52.3107
1360299394216,52.3912
1360299454216,52.2966
1360299514216,52.3966
1360299574216,52.4464
1360299634227,52.2264
1360299694227,52.3568
1360299754227,52.3096
1360299814227,52.2898
1360299874227,52.4015
1360299934227,52.3309
1360299994227,52.2095
1360300054227,52.3772
1360300114227,52.2607
1360300174227,52.4090
1360300234227,52.5848
1360300294227,52.3584
1360300354227,52.3764
1360300414227,52.4789
1360300474227,52.3435
1360300534227,52.5157
1360300594227,52.3753
1360300654227,52.4845
1360300714227,52.5199
1360300774227,52.5142
1360300834227,52.5874
1360300894227,52.3483
1360300954227,52.5259
1360301014227,52.5039
1360301074227,52.4816
1360301134227,52.5458
1360301194227,52.4545
1360301254227,52.4268
1360301314227,52.2596
1360301374227,52.3055
1360301434227,52.5094
1360301494227,52.5342
1360301554227,52.5186
1360301614227,52.3705
1360301674227,52.4143
1360301734227,52.2794
1360301794227,52.3340
1360301854227,52.3521
1360301914227,52.4877
1360301974227,52.3520
1360302034227,52.3550
1360302094227,52.3870
1360302154227,52.2998
1360302214227,52.3719
1360302274227,52.3389
1360302334227,52.4470
1360302394227,52.3086
1360302454227,52.3574
1360302514227,52.4251
1360302574227,52.4454
1360302634227,52.5182
1360302694227,52.5117
1360302754227,52.5340
1360302814227,52.5196
1360302874227,52.3567
1360302934227,52.2922
1360302994227,52.3246
1360303054227,52.2603
1360303114227,52.2249
1360303174227,52.4249
1360303234238,52.1506
1360303294238,52.2652
1360303354238,52.2183
1360303414238,52.1545
1360303474238,52.3959
1360303534238,52.4738
1360303594238,52.3599
1360303654238,52.3064
1360303714238,52.2229
1360303774239,52.3017
1360303834239,52.3583
1360303894239,52.1384
1360303954238,52.3473
1360304014238,52.2105
1360304074238,52.2426
1360304134238,52.2299
1360304194238,52.3306
1360304254238,52.3523
1360304314238,52.1502
1360304374238,52.1739
1360304434238,52.3295
1360304494238,52.4281
1360304554238,52.5084
1360304614238,52.4234
1360304674238,52.2884
1360304734238,52.3161
1360304794238,52.2191
1360304854238,52.3157
1360304914238,52.1901
1360304974238,52.2928
1360305034238,52.3738
1360305094238,52.3302
1360305154239,52.2217
1360305214239,52.2883
1360305274239,52.1742
1360305334238,52.1442
1360305394238,52.2786
1360305454238,52.2146
1360305514238,52.4657
1360305574238,52.2164
1360305634238,52.2549
1360305694238,52.2052
1360305754238,52.2155
1360305814238,52.2225
1360305874238,52.1488
1360305934238,52.3683
1360305994238,52.2201
1360306054238,52.1893
1360306114238,52.2311
1360306174238,52.1972
1360306234238,52.0691
1360306294238,52.3012
1360306354238,52.2061
1360306414238,52.0750
1360306474239,52.1653
1360306534239,52.3123
1360306594239,52.0428
1360306654238,52.1240
1360306714238,52.0710
1360306774238,52.3338
1360306834250,52.2043
1360306894250,52.1461
1360306954250,52.0794
1360307014250,52.2425
1360307074250,52.2243
1360307134250,52.1947
1360307194250,52.2673
1360307254250,52.3433
1360307314250,52.3264
1360307374250,52.1598
1360307434250,52.1249
1360307494250,52.3085
1360307554250,52.2118
1360307614250,52.2154
1360307674250,52.2542
1360307734250,52.0605
1360307794250,52.2564
1360307854250,52.2426
1360307914250,52.2918
1360307974250,52.2016
1360308034250,52.2383
1360308094250,52.2393
1360308154250,52.2399
1360308214250,52.3687
1360308274250,52.2861
1360308334250,52.1953
1360308394250,52.3766
1360308454250,52.2990
1360308514250,52.2247
1360308574250,52.2963
1360308634250,52.1070
1360308694250,52.3502
1360308754250,52.3685
1360308814250,52.2647
1360308874250,52.4298
1360308934250,52.2132
1360308994250,52.1763
1360309054250,52.0840
1360309114250,52.2139
1360309174250,52.0358
1360309234250,52.1346
1360309294250,52.2120
1360309354250,52.1581
1360309414250,52.0713
1360309474250,52.1401
1360309534250,52.1165
1360309594250,52.1550
1360309654250,52.2712
1360309714250,52.2309
1360309774250,52.0157
1360309834250,52.1630
1360309894250,52.2290
1360309954250,52.1645
1360310014250,52.2898
1360310074250,52.2020
1360310134250,52.1680
1360310194250,52.1570
1360310254250,52.0422
1360310314250,52.1487
1360310374250,52.1218
1360310434261,52.1336
1360310494261,52.1928
1360310554261,52.2654
1360310614261,52.0685
1360310674261,52.1443
1360310734261,52.0384
1360310794261,52.2122
1360310854261,52.1637
1360310914261,52.1745
1360310974261,52.3090
1360311034261,52.2617
1360311094261,52.0918
1360311154261,52.2103
1360311214261,52.1744
1360311274261,52.2102
1360311334261,52.0618
1360311394261,52.2038
1360311454261,52.2169
1360311514261,52.0863
1360311574261,52.2574
1360311634261,52.2142
1360311694261,52.1632
1360311754261,52.2037
1360311814261,52.0907
1360311874261,52.1797
1360311934261,52.1978
1360311994261,52.2212
1360312054261,52.1090
1360312114261,52.1341
1360312174261,52.1595
1360312234261,52.1788
1360312294261,52.2098
1360312354261,52.2228
1360312414261,52.4011
1360312474261,52.3191
1360312534261,52.2183
1360312594261,52.2582
1360312654261,52.3666
1360312714261,52.1901
1360312774261,52.2344
1360312834261,52.1508
1360312894261,52.1169
1360312954261,52.3262
1360313014261,52.2022
1360313074261,52.2229
1360313134261,52.2897
1360313194261,52.1158
1360313254261,52.2689
1360313314261,52.0822
1360313374261,52.0367
1360313434261,52.0258
1360313494261,52.0462
1360313554261,52.0955
1360313614261,52.0820
1360313674261,52.1763
1360313734261,52.0360
1360313794261,52.1142
1360313854261,52.2616
1360313914261,52.0119
1360313974261,52.0493
1360314034272,51.9617
1360314094272,52.0106
1360314154272,52.0703
1360314214272,52.0258
1360314274272,52.1081
1360314334272,52.0898
1360314394272,52.2535
1360314454272,52.1657
1360314514272,52.1947
1360314574272,52.0065
1360314634272,52.0899
1360314694272,51.6761
1360315234272,51.9583
1360315294272,51.9968
1360315354272,52.0858
1360315414272,52.1768
1360315474272,52.1587
1360315534272,52.1412
1360315594272,52.0178
1360315654272,52.0392
1360315714272,52.1644
1360315774272,52.1234
1360315834272,52.1076
1360315894272,51.9379
1360315954272,52.0602
1360316014272,52.2168
1360316074272,51.9044
1360316134272,51.9545
1360316194272,51.9970
1360316254272,52.1896
1360316314272,51.9939
1360316374272,52.0237
1360316434272,52.0927
1360316494272,52.1703
1360316554272,52.2173
1360316614272,52.1222
1360316674272,52.1738
1360316734272,52.1813
1360316794272,52.2233
1360316854272,52.1187
1360316914272,52.2959
1360316974272,51.9386
1360317034272,52.1939
1360317094272,52.0690
1360317154272,52.1108
1360317214272,52.1052
1360317274272,52.1441
1360317334272,52.0259
1360317394272,52.1727
1360317454272,51.9959
1360317514272,52.1744
1360317574272,52.2119
1360317634284,52.0984
1360317694284,52.1195
1360317754284,51.8329
1360317814284,52.0415
1360317874284,51.9812
1360317934284,51.9841
1360317994284,52.1243
1360318054284,51.8880
1360318114284,52.0101
1360318174284,51.9311
1360318234284,52.1638
1360318294284,51.9032
1360318354284,52.0070
1360318414284,52.1710
1360318474284,51.9334
1360318534284,51.9336
1360318594284,52.0671
1360318654284,52.0078
1360318714284,52.0645
1360318774284,52.1269
1360318834284,52.1900
1360318894284,51.9027
1360318954284,52.1929
1360319014284,51.9936
1360319074284,52.0116
1360319134284,52.0596
1360319194284,51.9863
1360319254284,52.0910
1360319314284,52.2298
1360319374284,52.0662
1360319434284,52.0823
1360319494284,52.1263
1360319554284,52.2264
1360319614284,52.2518
1360319674284,52.1265
1360319734284,52.1530
1360319794284,52.1404
1360319854284,52.2757
1360319914284,52.0285
1360319974284,52.2489
1360320034284,52.1309
1360320094284,51.9878
1360320154284,52.3212
1360320214284,52.0911
1360320274284,52.1267
1360320334284,52.1184
1360320394284,52.1450
1360320454284,52.2266
1360320514284,52.1482
1360320574284,52.2096
1360320634284,52.0306
1360320694284,52.0353
1360320754284,52.0781
1360320814284,52.2485
1360320874284,52.1130
1360320934284,52.1879
1360320994284,52.1455
1360321054284,52.0652
1360321114284,51.9902
1360321174284,52.1456
1360321234295,52.1223
1360321294295,52.0917
1360321354295,52.1901
1360321414295,52.1731
1360321474295,52.0673
1360321534295,52.1691
1360321594295,52.0296
1360321654295,52.0046
1360321714295,52.3777
1360321774295,52.1826
1360321834295,52.2261
1360321894295,52.2869
1360321954295,52.1761
1360322014295,52.3176
1360322074295,52.2277
1360322134295,52.2421
1360322194295,52.2535
1360322254295,52.2864
1360322314295,52.2976
1360322374295,52.2150
1360322434295,52.2614
1360322494295,52.2507
1360322554295,52.2958
1360322614295,52.2085
1360322674295,52.2568
1360322734295,52.2416
1360322794295,52.3771
1360322854295,52.2186
1360322914295,52.2576
1360322974295,52.3662
1360323034295,52.1046
1360323094295,52.2717
1360323154295,52.2022
1360323214295,52.2832
1360323274295,52.2360
1360323334295,52.2317
1360323394295,52.1685
1360323454295,52.1713
1360323514295,52.2471
1360323574295,52.3452
1360323634295,52.3681
1360323694295,52.3188
1360323754295,52.2624
1360323814295,52.1863
1360323874295,52.3521
1360323934295,52.1457
1360323994295,52.2669
1360324054295,52.2045
1360324114295,52.3182
1360324174295,52.3215
1360324234295,52.3095
1360324294295,52.3007
1360324354295,52.2117
1360324414295,52.2798
1360324474295,52.0612
1360324534295,52.2711
1360324594295,52.3474
1360324654295,52.3409
1360324714295,52.1679
1360324774295,52.2392
1360324834306,52.2292
1360324894306,52.2717
1360324954306,52.4568
1360325014306,52.4084
1360325074306,52.2583
1360325134306,52.3677
1360325194306,52.2529
1360325254306,52.2979
1360325314306,52.2380
1360325374306,52.3323
1360325434306,52.3930
1360325494306,52.4184
1360325554306,52.5846
1360325614306,52.4480
1360325674306,52.4480
1360325734306,52.4884
1360325794306,52.3594
1360325854306,52.3947
1360325914306,52.3343
1360325974306,52.4063
1360326034306,52.4274
1360326094306,52.4454
1360326154306,52.5786
1360326214306,52.3864
1360326274306,52.4416
1360326334306,52.5579
1360326394306,52.4684
1360326454306,52.6307
1360326514306,52.4315
1360326574306,52.5726
1360326634306,52.5013
1360326694306,52.5096
1360326754306,52.4831
1360326814306,52.4681
1360326874306,52.5222
1360326934306,52.5438
1360326994306,52.4879
1360327054306,52.4486
1360327114306,52.3824
1360327174306,52.6845
1360327234306,52.5181
1360327294306,52.5444
1360327354306,52.4471
1360327414306,52.5541
1360327474306,52.1857
1360327534306,52.5632
1360327594306,52.3077
1360327654306,52.4209
1360327714306,52.4512
1360327774306,52.2792
1360327834306,52.4864
1360327894306,52.3755
1360327954306,52.4498
1360328014306,52.5890
1360328074306,52.5285
1360328134306,52.5732
1360328194306,52.6042
1360328254306,52.3982
1360328314306,52.6006
1360328374306,52.5174
1360328434318,52.6112
1360328494318,52.5326
1360328554318,52.5005
1360328614318,52.5427
1360328674318,52.5933
1360328734318,52.5200
1360328794318,52.5306
1360328854318,52.4863
1360328914318,53.4683
1360328974318,52.7148
1360329034318,52.5535
1360329094318,52.6279
1360329154318,52.6849
1360329214318,52.4955
1360329274318,52.6193
1360329334318,52.5320
1360329394318,52.6155
1360329454318,52.6457
1360329514318,52.6976
1360329574318,52.7145
1360329634318,52.7782
1360329694318,52.7057
1360329754318,52.7678
1360329814318,52.6449
1360329874318,52.6500
1360329934318,52.4675
1360329994318,52.6009
1360330054318,52.5560
1360330114318,52.6688
1360330174318,52.6697
1360330234318,52.5422
1360330294318,52.6997
1360330354318,52.5605
1360330414318,52.5979
1360330474318,52.6756
1360330534318,52.8810
1360330594318,52.8069
1360330654318,52.7991
1360330714318,52.6262
1360330774318,52.6598
1360330834318,52.6152
1360330894318,52.6704
1360330954318,52.7346
1360331014318,52.8902
1360331074318,52.6691
1360331134318,52.6412
1360331194318,52.7488
1360331254318,52.5741
1360331314318,52.5437
1360331374318,52.6787
1360331434318,52.6673
1360331494318,52.5957
1360331554318,52.6640
1360331614318,52.5716
1360331674318,52.6976
1360331734318,52.8015
1360331794318,52.6862
1360331854318,52.7787
1360331914318,52.5227
1360331974318,52.6427
1360332034329,52.4139
1360332094329,52.6334
1360332154329,52.7269
1360332214329,52.5436
1360332274329,52.6340
1360332334329,52.7211
1360332394329,52.5673
1360332454329,52.4656
1360332514329,52.5700
1360332574329,52.6418
1360332634329,52.6922
1360332694329,53.1492
1360332754329,52.5114
1360332814329,52.5069
1360332874329,52.5272
1360332934329,52.5518
1360332994329,52.6769
1360333054329,52.6553
1360333114329,52.5221
1360333174329,52.6244
1360333234329,52.5418
1360333294329,52.5948
1360333354329,52.6890
1360333414329,52.4787
1360333474329,52.6838
1360333534329,52.5653
1360333594329,52.6875
1360333654329,52.6239
1360333714329,52.5779
1360333774329,52.6712
1360333834329,52.5551
1360333894329,52.5591
1360333954329,52.6725
1360334014329,52.4025
1360334074329,52.7501
1360334134329,52.5614
1360334194329,52.6108
1360334254329,52.4312
1360334314329,52.5029
1360334374329,52.5270
1360334434329,52.7322
1360334494329,52.4921
1360334554329,52.5491
1360334614329,52.4651
1360334674329,52.4169
1360334734329,52.5654
1360334794329,52.3835
1360334854329,52.5367
1360334914329,52.5496
1360334974329,52.3495
1360335034329,52.5149
1360335094329,52.5830
1360335154329,52.4940
1360335214329,52.4612
1360335274329,52.6339
1360335334329,52.4622
1360335394329,52.6507
1360335454329,52.5363
1360335514329,52.4573
1360335574329,52.5301
1360335634340,52.3646
1360335694340,52.6351
1360335754340,52.6165
1360335814340,52.5052
1360335874340,52.5232
1360335934340,52.7034
1360335994340,52.5988
1360336054340,52.4432
1360336114340,52.6026
1360336174340,52.5486
1360336234340,52.5856
1360336294340,52.4721
1360336354340,52.6415
1360336414340,52.7339
1360336474340,52.4518
1360336534340,52.6113
1360336594340,52.5062
1360336654340,52.4856
1360336714340,52.4726
1360336774340,52.4677
1360336834340,52.5563
1360336894340,52.5137
1360336954340,52.3020
1360337014340,52.4804
1360337074340,52.4434
1360337134340,52.4876
1360337194340,52.5836
1360337254340,52.4596
1360337314340,52.5085
1360337374340,52.4909
1360337434340,52.5018
1360337494340,52.4781
1360337554340,52.5982
1360337614340,52.4134
1360337674340,52.4014
1360337734340,52.4770
1360337794340,52.5253
1360337854340,52.4446
1360337914340,52.3759
1360337974340,52.5604
1360338034340,52.5783
1360338094340,52.6589
1360338154340,52.5424
1360338214340,52.5097
1360338274340,52.5170
1360338334340,52.5256
1360338394340,52.5269
1360338454340,52.5050
1360338514340,52.6494
1360338574340,52.4924
1360338634340,52.5599
1360338694340,52.6110
1360338754340,52.6743
1360338814340,52.5180
1360338874340,52.7380
1360338934340,52.5388
1360338994340,52.5243
1360339054340,52.7527
1360339114340,52.8153
1360339174340,52.6940
1360339234351,52.7550
1360339294351,52.7449
1360339354351,52.6879
1360339414351,52.7575
1360339474351,52.6335
1360339534351,52.7846
1360339594351,52.6324
1360339654351,52.6591
1360339714351,52.8189
1360339774351,52.6053
1360339834351,52.6940
1360339894351,52.8301
1360339954351,52.6562
1360340014351,52.7587
1360340074351,52.7547
1360340134351,52.7323
1360340194351,52.7007
1360340254351,52.6408
1360340314351,52.8643
1360340374351,52.8482
1360340434351,52.9369
1360340494351,52.8747
1360340554351,52.7676
1360340614351,52.8243
1360340674351,52.8351
1360340734351,52.7528
1360340794351,52.8433
1360340854351,52.6219
1360340914351,52.7554
1360340974351,52.6703
1360341034351,52.6402
1360341094351,52.5582
1360341154351,52.5553
1360341214351,52.5804
1360341274351,52.8116
1360341334351,52.8133
1360341394351,52.4854
1360341454351,52.6903
1360341514351,52.6891
1360341574351,52.8401
1360341634351,52.8209
1360341694351,52.7620
1360341754351,52.5577
1360341814351,52.7354
1360341874351,52.5445
1360341934351,52.7215
1360341994351,52.5653
1360342054351,52.5472
1360342114351,52.7562
1360342174351,52.7299
1360342234351,52.5667
1360342294351,52.6284
1360342354351,52.7738
1360342414351,52.7154
1360342474351,52.7482
1360342534351,52.7619
1360342594351,52.6822
1360342654351,52.7379
1360342714351,52.7202
1360342774351,52.7021
1360342834362,52.8469
1360342894362,52.6859
1360342954362,52.6523
1360343014362,52.7017
1360343074362,52.6907
1360343134362,52.8269
1360343194362,52.6306
1360343254362,52.6697
1360343314362,52.7913
1360343374362,52.7926
1360343434362,52.6928
1360343494362,52.6974
1360343554362,52.7715
1360343614362,52.7250
1360343674362,52.8160
1360343734362,52.7937
1360343794362,52.7515
1360343854362,52.8148
1360343914362,52.9201
1360343974362,52.8286
1360344034362,52.8775
1360344094362,52.7801
1360344154362,52.8683
1360344214362,52.8541
1360344274362,52.7166
1360344334362,52.7541
1360344394362,52.8080
1360344454362,52.8170
1360344514362,52.8448
1360344574362,52.8089
1360344634362,52.8417
1360344694362,52.8840
1360344754362,52.9521
1360344814362,52.8493
1360344874362,53.0563
1360344934362,52.9439
1360344994362,53.1159
1360345054362,53.0849
1360345114362,52.9047
1360345174362,53.0669
1360345234362,52.9278
1360345294362,52.9987
1360345354362,52.9145
1360345414362,52.8115
1360345474362,52.9110
1360345534362,53.1637
1360345594362,52.9110
1360345654362,52.9311
1360345714362,52.9074
1360345774362,53.0015
1360345834362,53.1480
1360345894362,53.0620
1360345954362,52.9568
1360346014362,53.1174
1360346074362,52.9552
1360346134362,53.0451
1360346194362,52.7864
1360346254362,52.8741
1360346314362,52.9919
1360346374362,52.9185
1360346434373,52.9410
1360346494373,53.0064
1360346554373,52.9869
1360346614373,52.9182
1360346674373,52.9150
1360346734373,52.8299
1360346794373,52.9527
1360346854373,53.0941
1360346914373,52.9713
1360346974373,53.0462
1360347034373,52.8621
1360347094373,53.0021
1360347154373,52.9393
1360347214373,52.9338
1360347274373,52.9478
1360347334373,53.0178
1360347394373,52.9900
1360347454373,53.0685